Regional Weather Roundup
Issued by NWS Wakefield, VA

Home | Current Version | Previous Version | Graphics & Text | Print | Product List | Glossary On
Versions: 1 2 3 4 5 6 7 8 9 10 11 12 13 14 15 16 17 18 19 20 21 22 23 24 25 26 27 28 29 30 31 32 33 34 35 36 37 38 39 40 41 42 43 44 45 46 47 48 49 50
000
ASUS41 KAKQ 010010
RWRAKQ

REGIONAL WEATHER ROUNDUP
NATIONAL WEATHER SERVICE WAKEFIELD VA
800 PM EDT SUN AUG 31 2014

Note: "fair" indicates few or no clouds below 12,000 feet with no
significant weather and/or obstructions to visibility. * = Denotes
station may not report precipitation (e.g., rain,snow,etc.),
thunder or fog.

VAZ042-051-052>054-056-010100-
NORTHERN VIRGINIA

CITY           SKY/WX    TMP DP  RH WIND       PRES   REMARKS
WASH NATIONAL  TSTM      79  70  74 CALM      30.04R
DULLES         CLOUDY    73  72  96 S9        30.03R
FORT BELVOIR   RAIN      73  72  94 W8        30.05F FOG
QUANTICO       MOCLDY    81  70  69 NW10      30.04R THUNDER
FREDERICKSBRG* PTCLDY    86  71  61 SW7       30.01R
STAFFORD*      MOCLDY    80  70  70 N9        30.07R
WARRENTON      MOCLDY    77  75  93 NE6       30.02F THUNDER
CULPEPER*      MOCLDY   N/A N/A N/A CALM      30.03F
MANASSAS*      NOT AVBL
LEESBURG*      CLOUDY    73  73 100 CALM      30.05R
WINCHESTER     RAIN      77  70  78 CALM      30.04R
$$

VAZ048-049-060>072-079>083-010100-
CENTRAL AND SOUTH CENTRAL VIRGINIA...AND NORTH CENTRAL NORTH CAROLINA

CITY           SKY/WX    TMP DP  RH WIND       PRES   REMARKS
RICHMOND       PTCLDY    83  70  64 S5        30.04R
CHESTERFIELD*  CLEAR     82  64  54 S3        30.06R
PETERSBURG*    CLEAR     80  70  71 CALM      30.05S
HANOVER        PTCLDY    86  70  58 S9        30.05R
TAPPAHANNOCK*  PTCLDY    83  67  60 S3        30.04R
CHARLOTTSVILLE MOCLDY    76  71  85 CALM      30.04R
ORANGE*        MOCLDY    82  72  69 CALM      30.04R THUNDER
LOUISA*        MOCLDY    82  73  74 CALM      30.03R
FARMVILLE*     MOCLDY    82  72  69 S3        30.03R
SOUTH HILL*    CLEAR     81  75  83 CALM      30.12R
ROANOKE RAPIDS CLEAR     81  70  69 S3        30.06S
RALEIGH        MOCLDY    82  71  69 CALM      30.07S
$$

VAZ088>098-010100-
SOUTHEAST VIRGINIA

CITY           SKY/WX    TMP DP  RH WIND       PRES   REMARKS
NORFOLK        CLEAR     85  68  56 S8        30.05R
VIRGINIA BEACH PTCLDY    82  74  76 S5        30.05S
NORFOLK NAVAL  MOCLDY    87  70  56 VRB5      30.06S
WEST POINT*    CLEAR     86  70  58 S5        30.05R
NEWPORT NEWS   CLEAR     88  71  57 S9        30.05R
LANGLEY AFB    CLEAR     85  72  65 SW8       30.04S
FORT EUSTIS    CLEAR     84  69  61 S5        30.03S
WILLIAMSBURG*  CLEAR     88  73  62 S3        30.05R HX  96
FRANKLIN*      CLEAR     81  72  74 S5        30.06R
WAKEFIELD      CLEAR     81  72  74 CALM      30.05R
$$

VAZ020-022-025-037-045-010100-
WESTERN AND SOUTHWEST VIRGINIA

CITY           SKY/WX    TMP DP  RH WIND       PRES   REMARKS
STAUNTON*      MOCLDY    75  68  78 S8        30.10R
HOT SPRINGS VA CLOUDY    65  62  89 W12G18    30.24R
LYNCHBURG      PTCLDY    78  72  81 W3        30.10R
DANVILLE       MOCLDY    82  69  64 N5        30.07R
MARTINSVILLE   MOCLDY    76  73  91 CALM      30.12R
ROANOKE        MOCLDY    82  67  60 CALM      30.11R
BLACKSBURG     MOCLDY    77  70  78 SW3       30.17S
DUBLIN*        CLOUDY    77  69  77 SW5       30.17S
MARION*        MOCLDY   N/A N/A N/A W3        30.21S
HILLSVILLE*    MOCLDY    74  68  80 S5        30.20R
RICHLANDS*     CLOUDY    75  68  79 SW6       30.19S
WISE*          CLOUDY    72  63  73 SW8       30.19S
ABINGDON*      MOCLDY    76  70  81 W3        30.17R
$$

MDZ021>025-VAZ099-100-010100-
SOUTHERN MARYLAND AND THE DELMARVA PENINSULA

CITY           SKY/WX    TMP DP  RH WIND       PRES   REMARKS
PATUXENT RIVER CLEAR     81  72  74 S6        30.01S
BAY BRIDGE APT   N/A     82  72  69 SW7       30.01R
LEONARDTOWN    CLEAR     84  68  58 S3        30.03R
DOVER          PTCLDY    83  72  69 S13       30.00R
GEORGETOWN     CLEAR     81  73  76 S15       30.04R
EASTON         MOCLDY    84  73  70 S8        30.05R
CAMBRIDGE      PTCLDY    81  72  74 S8        30.01F
SALISBURY      CLEAR     81  72  74 S7        30.04R
OCEAN CITY     CLEAR     79  73  82 SW12      30.05S
WALLOPS ISLAND CLEAR     79  75  87 SW13      30.05S
ACCOMACK*      NOT AVBL
$$

NCZ012>017-030>032-010100-
EASTERN NORTH CAROLINA

CITY           SKY/WX    TMP DP  RH WIND       PRES   REMARKS
ELIZABETH CITY CLEAR     81  73  76 S7        30.08R
AHOSKIE*       PTCLDY    77  75  91 CALM      30.07R
EDENTON*       CLEAR     82  74  78 S8        30.08R
CURRITUCK*     CLEAR     82  71  70 S3        30.08R
KILL DEVIL HLS CLEAR     81  74  81 S6        30.08S
MANTEO         CLEAR     81  75  83 S14       30.09S
CAPE HATTERAS  PTCLDY    80  76  87 S13       30.10F
GOLDSBORO      CLEAR     83  78  85 SE7       30.06R
WASHINGTON     CLEAR     82  70  67 S6        30.09R
GREENVILLE     PTCLDY    82  72  69 S12       30.09R
NEW BERN       PTCLDY    82  73  74 S6        30.11R
WILMINGTON     PTCLDY    81  74  79 S7        30.09S
$$

VAZ048-010100-
ELSEWHERE

CITY           SKY/WX    TMP DP  RH WIND       PRES   REMARKS
HARRISBURG PA  CLOUDY    79  72  79 CALM      30.00R
BALTIMORE      LGT RAIN  75  73  93 CALM      30.01F
ANNAPOLIS      MOCLDY    77  71  82 NW3       30.02R
ANDREWS AFB    TSTM      79  70  73 NW9       30.03R
WILMINGTON DE  CLOUDY    76  74  93 S9        30.02R
PHILADELPHIA   TSTM      74  71  91 CALM      30.02R
WILDWOOD NJ*   PTCLDY    79  70  73 S14       30.04R
ATLANTIC CITY  MOCLDY    78  71  79 S10       30.02R
HENDERSON NC   CLEAR     80  70  71 CALM      30.07R
GREENSBORO     MOCLDY    84  71  65 S8        30.08S
ROCKY MOUNT    CLEAR     80  74  81 CALM      30.07R
FAYETTEVILLE   CLEAR     86  72  62 S9        30.07R
CHARLOTTE      MOCLDY    84  70  62 S6        30.09R
$$

VAZ100-010100-
MARINE

STATION/POSITION TIME  TEMP    WIND        PRES    WAVE   SWELL
                       AIR SEA DIR/SP/G            HT/PER HT/PER
                 (UTC) (F)     (DEG/KT/KT) (MB)    (FT/S) (FT/S)
44066 TX TWR #4  0000   75 74  210/ 17/ 21 1017.1F   4/ 5   2/ 9
CAPE MAY NJ      0000   78 80  160/ 11/ 17 1016.1F
LEWES DE         0000   82 76  200/  5/  8 1016.5F
15NM E FENWICK I 0000   76 74              1017.2S   3/ 4
OCEAN-CITY-INLET 0000   77 78  220/ 14/ 16 1017.3R
WACHAPREAGUE VA  0000   80 85  210/ 12/ 17 1017.6S
THOMAS POINT MD  0000   80 79  340/ 11/ 12 1017.5R
GOOSES REEF MD   0000   80     190/ 16/ 17 1016.2R
COVE POINT MD    0000   80     190/ 15/ 17 1016.2R
SOLOMONS ISLAND  0000      80                N/A
BISHOPS HEAD MD  0000   80 80  160/ 15/ 17 1016.2S
PINEY POINT MD   0000          210/  7/  8   N/A
POTOMAC MD       0000   81     180/ 12/ 14 1015.8F
CAMBRIDGE MD     0000   82 78  180/  4/ 10 1016.3R
LEWISETTA VA     0000   82 78  190/  7/  7 1016.3R
RAPPAHANNOCK LGT 0000          150/ 14/ 15 1017.7S
STINGRAY PT      0000   81     160/ 10/ 12   N/A
YORK RVR RNG VA  0000   84     210/ 12/ 13 1016.7R
YORKTOWN VA      0000   85 80  190/  5/  7 1016.9R
JAMESTOWN VA     0000   84     210/  6/ 10   N/A
DOMINION TERM VA 0000   84     190/  8/  9 1017.5S
KIPTOPEKE VA     0000      84  180/ 17/ 20   N/A
CHES BAY BRIDGE  0000   85 80  190/  9/ 11 1017.2R
CAPE HENRY VA    0000   80     150/  6/  7 1016.5R
CHESAPEAKE LGHT  2300   79     170/ 23/ 25 1017.9F
WILLOUBY STN VA  0000   86     220/ 11/ 13 1016.4R
S CRANEY ISL VA  0000          180/  6/  9 1017.3R
CAPE HENRY BUOY  0000      79                N/A     3/10
1ST LANDING BUOY 0000   81     160/  8/ 10 1017.2R
CAPE CHARLES BUO 0000      78                N/A     3/10   2/10
OFFSHORE WE BUOY 0000      77                N/A     3/10   2/10
64NM E OF VA BCH 0000   79 78  180/ 14/ 16 1018.5F   3/ 9   2/ 9
DUCK PIER NC     0000   81 77  170/ 12/ 15 1017.9R
44056 DUCK FRF   0000                        N/A     2/ 9
OREGON INLET NC  0000   81 82  170/ 15/ 19 1018.9S
HATTERAS NC      0000   81 84  190/  5/ 12 1019.7F
DIAMOND SHLS NC  0000   81     180/ 14/ 16 1019.5S   3/ 9   3/ 9
CAPE LOOKOUT NC  2300   82     190/ 10/ 13 1019.3F
$$



USA.gov is the U.S. government's official web portal to all federal, state and local government web resources and services.